Back to catalog

DMSP 5D-2 F13 DEB

AlivePO
NORAD 42278·DEBRIS·🇺🇸 United States

Launched Mar 24, 1995 from Vandenberg Space Force Base

Loading…

Next Passes (next 24 hours)

TLE

FreshSource: Space-Track

Epoch: Sep 14, 2026, 20:16 UTC

1 42278U 95015GU  26257.84491377  .00010210  00000-0  22192-2 0  9990
2 42278  98.8711 296.9252 0020946 339.3979  20.6372 14.58105565580775

Track DMSP 5D-2 F13 DEB in real time with AllMySat

Download on the App Store